This demonstration page uses our WeatherBlox Daily Observations layout. Learn more.

Left ArrowRight Arrow

Hourly Observations for October 6, 2020

Temp ( °F °C ) Dew Point ( °F °C ) Humidity (%) Winds ( mph kmh ) Pressure ( in mb ) Visibility ( mi km ) Precip ( " mm )
12:53 am 00:53 Clear 56 13.3 44 6.7 65 65 NNW 6 9 30.03 1017 10 16 0.00 0.00
1:53 am 01:53 Clear 55 12.8 44 6.7 67 67 NW 5 7 30.03 1017 10 16 0.00 0.00
2:53 am 02:53 Clear 51 10.6 42 5.6 71 71 W 6 9 30.02 1017 10 16 0.00 0.00
3:53 am 03:53 Clear 52 11.1 43 6.1 72 72 NW 5 7 30.02 1017 10 16 0.00 0.00
4:53 am 04:53 Clear 49 9.4 41 5 74 74 Calm 30.01 1016 10 16 0.00 0.00
5:53 am 05:53 Clear 49 9.4 42 5.6 77 77 WSW 8 13 30.05 1018 10 16 0.00 0.00
6:53 am 06:53 Clear 48 8.9 41 5 77 77 Calm 30.06 1018 10 16 0.00 0.00
7:53 am 07:53 Sunny 48 8.9 42 5.6 80 80 W 8 13 30.09 1019 10 16 0.00 0.00
8:53 am 08:53 Sunny 54 12.2 45 7.2 72 72 Calm 30.08 1019 10 16 0.00 0.00
9:53 am 09:53 Sunny 63 17.2 47 8.3 56 56 WSW 5 7 30.08 1019 10 16 0.00 0.00
10:53 am 10:53 Sunny 70 21.1 48 8.9 46 46 SW 6 9 30.07 1018 10 16 0.00 0.00
11:53 am 11:53 Sunny 76 24.4 46 7.8 35 35 SSW 8 13 30.04 1017 10 16 0.00 0.00
12:53 pm 12:53 Sunny 78 25.6 45 7.2 31 31 WSW 10 17 30.02 1017 10 16 0.00 0.00
1:53 pm 13:53 Sunny 81 27.2 44 6.7 27 27 SW 14 22 29.99 1016 10 16 0.00 0.00
2:53 pm 14:53 Sunny 83 28.3 44 6.7 25 25 SW 12 19 29.95 1014 10 16 0.00 0.00
3:53 pm 15:53 Sunny 84 28.9 43 6.1 24 24 WSW 15 24 29.94 1014 10 16 0.00 0.00
4:53 pm 16:53 Sunny 85 29.4 42 5.6 22 22 WSW 14 22 29.92 1013 10 16 0.00 0.00
5:53 pm 17:53 Sunny 84 28.9 43 6.1 24 24 SW 9 15 29.91 1013 10 16 0.00 0.00
6:53 pm 18:53 Sunny 80 26.7 42 5.6 26 26 SSW 7 11 29.91 1013 10 16 0.00 0.00
7:53 pm 19:53 Clear 73 22.8 42 5.6 33 33 S 6 9 29.92 1013 10 16 0.00 0.00
8:53 pm 20:53 Clear 71 21.7 43 6.1 36 36 S 8 13 29.92 1013 10 16 0.00 0.00
9:53 pm 21:53 Clear 70 21.1 42 5.6 37 37 SSW 8 13 29.90 1013 10 16 0.00 0.00
10:53 pm 22:53 Clear 67 19.4 42 5.6 41 41 SSW 7 11 29.91 1013 10 16 0.00 0.00
11:53 pm 23:53 Clear 66 18.9 41 5 40 40 SSW 8 13 29.90 1012 10 16 0.00 0.00

Powered by AerisWeather